EA1HBP-10 Weather Reports


Display with metric or nautical units.
time (UTC)temp
F
wind
direction
speed
MPH
gust
MPH
rain 1hr
in
rain 24hr
in
rain mn
in
humidity
%
barometer
mb
20260506205500 51 181 0.0 2.0 0.00 0.00 0.00 73 1008.6
20260506204800 51 170 1.0 2.0 0.00 0.00 0.00 72 1008.6
20260506204100 52 136 0.0 2.0 0.00 0.00 0.00 71 1008.4
20260506203400 52 131 0.0 1.0 0.00 0.00 0.00 70 1008.5
20260506202000 53 162 0.0 2.0 0.00 0.00 0.00 67 1008.3
20260506201300 53 146 0.0 2.0 0.00 0.00 0.00 67 1008.1
20260506200601 54 139 0.0 2.0 0.00 0.00 0.00 66 1008.0
20260506195900 54 181 0.0 2.0 0.00 0.00 0.00 65 1008.1
20260506194500 55 0 0.0 0.0 0.00 0.00 0.00 63 1007.9
20260506193100 55 245 0.0 2.0 0.00 0.00 0.00 62 1007.9
20260506192400 56 208 0.0 2.0 0.00 0.00 0.00 59 1007.8
20260506191700 56 234 0.0 3.0 0.00 0.00 0.00 56 1007.8
20260506191000 57 263 1.0 4.0 0.00 0.00 0.00 55 1007.8
20260506190300 58 291 2.0 5.0 0.00 0.00 0.00 50 1007.7
20260506185600 58 300 0.0 5.0 0.00 0.00 0.00 49 1007.6
20260506184900 58 300 2.0 5.0 0.00 0.00 0.00 48 1007.7
20260506184200 57 234 0.0 6.0 0.00 0.00 0.00 46 1007.7
20260506182800 57 237 2.0 5.0 0.00 0.00 0.00 49 1007.7
20260506180659 58 271 1.0 4.0 0.00 0.00 0.00 46 1007.7
20260506180000 58 186 0.0 6.0 0.00 0.00 0.00 44 1007.6
20260506175259 59 185 2.0 5.0 0.00 0.00 0.00 41 1007.6
20260506173859 59 230 2.0 7.0 0.00 0.00 0.00 41 1007.8
20260506173159 59 215 3.0 8.0 0.00 0.00 0.00 42 1007.8
20260506172459 60 208 4.0 13.0 0.00 0.00 0.00 42 1007.8
20260506171759 60 212 4.0 13.0 0.00 0.00 0.00 41 1007.8
20260506170359 62 233 2.0 10.0 0.00 0.00 0.00 36 1007.8
20260506165659 62 266 4.0 10.0 0.00 0.00 0.00 34 1007.6
20260506164959 63 279 5.0 10.0 0.00 0.00 0.00 34 1007.6
20260506164259 63 270 2.0 8.0 0.00 0.00 0.00 30 1007.5
20260506163559 63 241 2.0 6.0 0.00 0.00 0.00 31 1007.8
20260506162859 62 232 2.0 6.0 0.00 0.01 0.00 31 1007.7
20260506162159 62 254 3.0 8.0 0.00 0.01 0.00 31 1007.6
20260506161500 63 254 4.0 8.0 0.00 0.01 0.00 29 1007.6
20260506160759 64 250 4.0 8.0 0.00 0.01 0.00 26 1007.7
20260506155359 65 261 2.0 9.0 0.00 0.01 0.00 30 1007.7
20260506154659 63 259 4.0 8.0 0.00 0.01 0.00 29 1007.7
20260506153959 64 262 4.0 8.0 0.00 0.01 0.00 27 1007.7
20260506153301 64 262 2.0 6.0 0.00 0.01 0.00 27 1007.8
20260506152600 65 288 2.0 8.0 0.00 0.01 0.00 25 1007.9
20260506151859 65 268 5.0 8.0 0.00 0.01 0.00 24 1007.8
20260506151200 64 219 2.0 8.0 0.00 0.01 0.00 27 1008.0
20260506150500 64 222 2.0 7.0 0.00 0.01 0.00 26 1008.1
20260506145759 64 231 2.0 7.0 0.00 0.01 0.00 26 1008.2
20260506144359 65 261 2.0 8.0 0.00 0.01 0.00 23 1008.2
20260506143659 65 250 4.0 9.0 0.00 0.01 0.00 22 1008.1
20260506142959 66 202 2.0 8.0 0.00 0.01 0.00 22 1008.3
20260506142259 67 195 4.0 8.0 0.00 0.01 0.00 22 1008.4
20260506140859 64 336 2.0 10.0 0.00 0.01 0.00 23 1008.6
20260506135500 66 241 4.0 10.0 0.00 0.01 0.00 22 1008.6
20260506134800 66 252 1.0 8.0 0.00 0.02 0.00 22 1008.6
20260506134059 65 253 5.0 8.0 0.00 0.04 0.00 22 1008.7
20260506133400 65 235 2.0 8.0 0.00 0.04 0.00 28 1008.8
20260506132659 65 265 4.0 8.0 0.00 0.04 0.00 25 1008.8
20260506131959 64 305 4.0 8.0 0.00 0.04 0.00 24 1008.8
20260506131300 65 299 4.0 8.0 0.00 0.04 0.00 25 1008.9
20260506130559 64 306 3.0 8.0 0.00 0.04 0.00 25 1009.0
20260506125159 64 219 2.0 8.0 0.00 0.04 0.00 26 1009.1
20260506124459 64 282 3.0 7.0 0.00 0.04 0.00 30 1009.2
20260506123800 63 274 3.0 8.0 0.00 0.04 0.00 30 1009.3
20260506123100 63 288 4.0 8.0 0.00 0.04 0.00 30 1009.4
20260506122359 62 305 2.0 9.0 0.00 0.04 0.00 31 1009.5
20260506120959 63 259 4.0 8.0 0.00 0.04 0.00 29 1009.7
20260506120300 62 254 4.0 8.0 0.00 0.04 0.00 33 1009.8
20260506114859 62 252 3.0 8.0 0.00 0.04 0.00 34 1010.0
20260506114200 62 215 2.0 8.0 0.00 0.04 0.00 39 1010.1
20260506113459 61 289 2.0 7.0 0.00 0.04 0.00 39 1010.1
20260506112100 61 195 2.0 5.0 0.00 0.04 0.00 42 1010.4
20260506110659 61 280 2.0 8.0 0.00 0.04 0.00 41 1010.4
20260506105959 60 131 2.0 8.0 0.00 0.04 0.00 46 1010.7
20260506105300 60 280 4.0 8.0 0.00 0.04 0.00 43 1010.6
20260506104559 60 270 2.0 7.0 0.00 0.04 0.00 48 1010.5
20260506103859 59 250 2.0 8.0 0.00 0.04 0.00 47 1010.6
20260506102459 58 221 3.0 7.0 0.00 0.04 0.00 52 1010.7
20260506101800 57 256 3.0 6.0 0.00 0.04 0.00 55 1010.8
20260506101059 56 262 2.0 7.0 0.00 0.04 0.00 54 1010.7
20260506100400 56 228 1.0 4.0 0.00 0.04 0.00 62 1010.6
20260506095659 55 239 1.0 5.0 0.00 0.04 0.00 61 1010.7
20260506095000 55 229 2.0 6.0 0.00 0.04 0.00 60 1010.7
20260506093559 55 238 2.0 4.0 0.00 0.04 0.00 61 1010.8
20260506092859 55 262 2.0 7.0 0.00 0.04 0.00 61 1010.8
20260506092159 56 257 3.0 7.0 0.00 0.04 0.00 57 1010.9
20260506085359 54 271 3.0 8.0 0.00 0.04 0.00 73 1010.8
20260506084659 54 249 2.0 7.0 0.00 0.04 0.00 76 1010.9
20260506083959 53 252 3.0 6.0 0.00 0.04 0.00 79 1010.9
20260506083259 53 283 2.0 7.0 0.00 0.04 0.00 81 1010.9
20260506082559 52 282 2.0 7.0 0.00 0.04 0.00 83 1010.9
20260506081859 52 291 2.0 5.0 0.00 0.04 0.00 86 1011.0
20260506081159 51 294 2.0 5.0 0.00 0.04 0.00 86 1011.0
20260506080459 51 276 2.0 5.0 0.00 0.04 0.00 88 1011.1
20260506072959 47 30 0.0 4.0 0.00 0.04 0.00 99 1011.1
20260506072259 47 30 2.0 4.0 0.00 0.04 0.00 99 1011.1
20260506071559 47 63 1.0 4.0 0.00 0.04 0.00 99 1011.1
20260506070859 46 108 1.0 5.0 0.00 0.04 0.00 99 1011.1
20260506070158 45 112 2.0 3.0 0.00 0.04 0.00 99 1011.1
20260506061959 42 95 1.0 3.0 0.00 0.04 0.00 99 1011.1
20260506061258 41 105 0.0 3.0 0.00 0.04 0.00 99 1011.1
20260506060559 40 106 0.0 2.0 0.00 0.04 0.00 99 1011.1
20260506050958 40 79 0.0 3.0 0.00 0.04 0.00 99 1011.1
20260506050258 40 80 1.0 3.0 0.00 0.04 0.00 99 1011.0
20260506044858 41 53 1.0 2.0 0.00 0.04 0.00 99 1010.8
20260506044158 41 69 0.0 2.0 0.00 0.04 0.00 99 1010.8
20260506043458 42 93 0.0 2.0 0.00 0.04 0.00 99 1010.9
20260506042758 42 105 0.0 3.0 0.00 0.04 0.00 99 1010.9
20260506042058 42 104 1.0 3.0 0.00 0.04 0.00 99 1010.9
20260506041358 42 117 1.0 2.0 0.00 0.04 0.00 99 1011.1
20260506040658 42 111 0.0 2.0 0.00 0.04 0.00 99 1011.0
20260506035959 42 124 1.0 2.0 0.00 0.04 0.00 99 1011.1
20260506035258 42 89 0.0 1.0 0.00 0.04 0.00 99 1011.1
20260506034558 42 57 0.0 2.0 0.00 0.04 0.00 99 1011.1
20260506033858 42 100 0.0 3.0 0.00 0.04 0.00 99 1011.1
20260506033159 41 102 0.0 3.0 0.00 0.04 0.00 99 1011.1
20260506032458 41 102 0.0 4.0 0.00 0.04 0.00 99 1011.2
20260506031758 41 100 2.0 4.0 0.00 0.04 0.00 99 1011.1
20260506031059 41 91 0.0 4.0 0.00 0.04 0.00 99 1011.1
20260506025658 41 74 1.0 4.0 0.00 0.04 0.00 99 1011.1
20260506024958 41 82 1.0 2.0 0.00 0.04 0.00 99 1011.1
20260506023559 41 69 0.0 3.0 0.00 0.04 0.00 99 1011.0
20260506022158 41 128 0.0 2.0 0.00 0.04 0.00 99 1011.2
20260506021458 41 124 0.0 2.0 0.00 0.04 0.00 99 1011.2
20260506015359 40 119 0.0 2.0 0.00 0.04 0.00 99 1011.5
20260506014658 40 101 0.0 2.0 0.00 0.04 0.00 99 1011.4
20260506013958 40 91 1.0 3.0 0.00 0.04 0.00 99 1011.4
20260506011858 41 106 2.0 3.0 0.00 0.04 0.00 98 1011.3
20260506011159 41 17 1.0 2.0 0.00 0.04 0.00 97 1011.2
20260506010459 42 25 0.0 2.0 0.00 0.04 0.00 97 1011.3
20260506005058 42 85 1.0 2.0 0.00 0.04 0.00 96 1011.3
20260506004358 42 135 0.0 2.0 0.00 0.04 0.00 97 1011.5
20260506002959 42 130 0.0 2.0 0.00 0.04 0.00 96 1011.6
20260506002258 43 181 1.0 2.0 0.00 0.04 0.00 96 1011.6
20260506001558 43 158 0.0 2.0 0.00 0.04 0.00 96 1011.8
20260506000858 44 135 0.0 2.0 0.00 0.04 0.00 95 1011.7
20260506000159 44 138 0.0 3.0 0.00 0.04 0.00 95 1011.8
20260505235458 44 112 0.0 3.0 0.00 0.04 0.00 95 1011.9
20260505234758 44 263 0.0 3.0 0.00 0.04 0.00 96 1011.7
20260505234058 45 250 0.0 3.0 0.00 0.04 0.00 97 1011.8
20260505233358 45 254 1.0 4.0 0.00 0.04 0.00 97 1011.7
20260505232658 45 246 1.0 3.0 0.00 0.04 0.00 96 1011.7
20260505231958 45 269 0.0 3.0 0.00 0.04 0.00 95 1011.7
20260505231258 45 270 1.0 3.0 0.00 0.04 0.00 95 1011.8
20260505230558 46 269 1.0 3.0 0.00 0.04 0.00 94 1011.7
20260505225858 46 271 1.0 4.0 0.00 0.04 0.00 93 1011.6
20260505225158 46 267 1.0 4.0 0.00 0.04 0.00 93 1011.8
20260505224458 46 268 0.0 4.0 0.00 0.04 0.00 93 1011.9
20260505222358 47 262 1.0 4.0 0.00 0.04 0.00 92 1012.0
20260505221658 47 268 1.0 4.0 0.00 0.04 0.00 91 1012.1
20260505220958 47 232 2.0 3.0 0.00 0.04 0.00 91 1011.9
20260505220259 47 246 2.0 3.0 0.00 0.04 0.00 90 1012.0
20260505215559 47 257 0.0 4.0 0.00 0.04 0.04 90 1012.0
20260505214158 47 264 1.0 4.0 0.00 0.04 0.04 89 1012.0
20260505213458 47 273 1.0 4.0 0.00 0.04 0.04 87 1012.0
20260505212757 48 285 2.0 3.0 0.00 0.04 0.04 86 1011.9
20260505212059 48 270 0.0 2.0 0.00 0.04 0.04 85 1012.0
20260505211358 48 261 1.0 3.0 0.00 0.04 0.04 85 1011.9
20260505210657 48 267 0.0 3.0 0.00 0.04 0.04 84 1011.8